Location: Aranbee
(34.0885°N, 118.2342°W)
Time: 22:29:57
(UTC+00:00)

Explorer 11/Cluster Stage 4 - All Passes

Search period start: 28 May 2022 00:00
Search period end: 07 June 2022 00:00
Orbit: 466 x 1252 km, 28.8° (Epoch: 27 May)

Date Brightness Start Highest point End Pass type
(mag) Time Alt. Az. Time Alt. Az. Time Alt. Az.
28 May - 02:34:49 10° S 02:37:31 14° SSE 02:39:59 10° SE daylight
28 May - 04:21:27 10° SW 04:25:32 29° S 04:29:02 10° ESE visible
28 May - 06:09:37 10° WSW 06:13:24 37° S 06:16:50 10° ESE visible
28 May - 07:58:09 10° WSW 08:01:08 23° SSW 08:04:05 10° SE night (unlit)
29 May - 02:21:56 10° SSW 02:25:34 17° SSE 02:28:46 10° ESE daylight
29 May - 04:09:11 10° SW 04:13:38 33° S 04:17:22 10° ESE visible
29 May - 05:57:36 10° WSW 06:01:33 38° S 06:05:02 10° ESE visible
29 May - 07:46:22 10° WSW 07:49:16 21° SSW 07:52:04 10° SE night (unlit)
30 May - 02:09:13 10° SSW 02:13:35 21° SSE 02:17:21 10° ESE daylight
30 May - 03:56:56 10° WSW 04:01:43 37° S 04:05:40 10° ESE visible
30 May - 05:45:34 10° WSW 05:49:41 38° S 05:53:14 10° ESE visible
30 May - 07:34:34 10° WSW 07:37:21 19° SSW 07:40:01 10° SSE night (unlit)
31 May - 01:56:36 10° SW 02:01:35 25° SSE 02:05:48 10° ESE daylight
31 May - 03:44:40 10° WSW 03:49:47 40° S 03:53:58 10° ESE visible
31 May - 05:33:30 10° WSW 05:37:48 38° S 05:41:27 10° ESE visible
31 May - 07:22:47 10° WSW 07:25:27 17° SSW 07:27:57 10° SSE night (unlit)
31 May - 23:58:21 10° S 00:01:13 13° SSE 00:03:53 10° SE daylight
01 Jun - 01:44:02 10° SW 01:49:34 29° SSE 01:54:12 10° ESE daylight
01 Jun - 03:32:24 10° WSW 03:37:51 44° S 03:42:14 10° ESE visible
01 Jun - 05:21:24 10° WSW 05:25:53 38° S 05:29:39 10° ESE visible
01 Jun - 07:11:00 10° WSW 07:13:30 16° SSW 07:15:51 10° SSE night (unlit)
01 Jun - 23:45:01 10° S 23:49:06 16° SSE 23:52:51 10° ESE daylight
02 Jun - 01:31:31 10° SW 01:37:32 33° SSE 01:42:31 10° ESE daylight
02 Jun - 03:20:08 10° WSW 03:25:53 47° S 03:30:29 10° ESE visible
02 Jun - 05:09:18 10° WSW 05:13:58 37° SSW 05:17:50 10° SE visible
02 Jun - 06:59:14 10° WSW 07:01:33 14° SSW 07:03:41 10° S night (unlit)
02 Jun - 23:31:59 10° SSW 23:36:58 19° SSE 23:41:29 10° ESE daylight
03 Jun - 01:19:01 10° SW 01:25:27 37° SSE 01:30:47 10° E daylight
03 Jun - 03:07:51 10° WSW 03:13:54 49° S 03:18:43 10° ESE daylight
03 Jun - 04:57:08 10° W 05:02:00 36° SSW 05:06:00 10° SE visible
03 Jun - 06:47:31 10° SW 06:49:33 13° SSW 06:51:27 10° S visible
03 Jun - 23:19:08 10° SSW 23:24:48 22° SSE 23:29:56 10° ESE daylight
04 Jun - 01:06:34 10° SW 01:13:22 41° SSE 01:19:00 10° E daylight
04 Jun - 02:55:33 10° WSW 03:01:52 51° S 03:06:55 10° ESE daylight
04 Jun - 04:44:59 10° W 04:50:01 35° SSW 04:54:09 10° SE visible
04 Jun - 06:35:53 10° SW 06:37:33 12° SSW 06:39:05 10° S visible
04 Jun - 23:06:23 10° SSW 23:12:37 25° SSE 23:18:15 10° ESE daylight
05 Jun - 00:54:08 10° WSW 01:01:15 45° S 01:07:11 10° E daylight
05 Jun - 02:43:15 10° WSW 02:49:50 52° S 02:55:07 10° ESE daylight
05 Jun - 04:32:48 10° W 04:38:01 33° SSW 04:42:16 10° SE visible
05 Jun - 06:24:28 10° SW 06:25:30 11° SSW 06:26:29 10° SSW visible
05 Jun - 21:10:17 10° SSE 21:11:57 11° SSE 21:13:37 10° SE daylight
05 Jun - 22:53:44 10° SSW 23:00:24 29° SSE 23:06:29 10° ESE daylight
06 Jun - 00:41:44 10° WSW 00:49:07 48° S 00:55:20 10° E daylight
06 Jun - 02:30:57 10° W 02:37:46 53° S 02:43:16 10° ESE daylight
06 Jun - 04:20:38 10° W 04:25:58 32° SSW 04:30:22 10° SE visible
06 Jun - 20:56:21 10° S 20:59:42 13° SSE 21:03:00 10° SE daylight
06 Jun - 22:41:10 10° SW 22:48:10 32° SSE 22:54:38 10° E daylight
